Location: Newark
(42.8481°N, 0.4872°E)
Time: 08:32:56
(UTC+00:00)

SR - Pass Details

Date: 01 November 2020
Orbit: 579 x 876 km, 66.7° (Epoch: 29 November)

Event Time Altitude Azimuth Distance (km) Brightness Sun altitude
Rises 02:34:05 0° 253° (WSW) 2,792 - -43.5°
Reaches altitude 10° 02:36:52 10° 272° (W) 1,911 - -43.1°
Maximum altitude 02:39:52 18° 317° (NW) 1,477 - -42.6°
Drops below altitude 10° 02:42:57 10° 1° (N) 1,983 - -42.0°
Exits shadow 02:45:35 - 19° (NNE) 2,825 ? -41.6°
Sets 02:45:55 0° 21° (NNE) 2,942 ? -41.5°
